Location: Newark
(25.4800°N, 85.7200°E)
Time: 08:48:47
(UTC+00:00)

Tiros 1 - Visible Passes

Search period start: 24 August 2019 00:00
Search period end: 03 September 2019 00:00
Orbit: 631 x 664 km, 48.4° (Epoch: 23 August)

Date Brightness Start Highest point End Pass type
(mag) Time Alt. Az. Time Alt. Az. Time Alt. Az.
24 Aug 9.7 23:12:59 10° NNW 23:16:35 21° NE 23:20:11 10° E visible
26 Aug 9.7 22:23:07 10° NNW 22:26:32 20° NE 22:29:57 10° E visible
27 Aug 8.3 14:10:50 10° SSW 14:13:20 27° S 14:13:20 27° S visible
27 Aug 8.3 22:48:23 10° NNW 22:52:52 45° NE 22:57:23 10° ESE visible
28 Aug 7.4 14:36:26 10° SW 14:40:28 64° W 14:40:28 64° W visible
28 Aug 9.7 21:33:16 10° N 21:36:29 18° NNE 21:39:43 10° ENE visible
28 Aug 7.1 23:14:18 10° NW 23:18:57 67° SW 23:23:38 10° SE visible
29 Aug 7.8 13:20:57 10° SSW 13:25:07 33° SE 13:29:16 10° ENE visible
29 Aug 8.9 15:03:15 10° W 15:07:15 29° NW 15:07:24 29° NW visible
29 Aug 8.3 21:59:49 18° NNW 22:02:51 40° NE 22:07:17 10° ESE visible
30 Aug 7.1 13:46:25 10° SW 13:51:04 83° NW 13:55:41 10° NE visible
30 Aug 10.0 15:31:28 10° WNW 15:33:45 13° NNW 15:33:56 13° NNW visible
30 Aug 10.2 20:49:00 11° ENE 20:49:00 11° ENE 20:49:26 10° ENE visible
30 Aug 7.0 22:26:48 32° NW 22:28:58 74° SW 22:33:39 10° SE visible
31 Aug 8.8 14:13:06 10° WSW 14:17:14 31° NW 14:21:21 10° NNE visible
31 Aug 9.7 21:16:10 16° ESE 21:16:10 16° ESE 21:17:10 10° ESE visible
31 Aug 8.1 22:53:59 24° WSW 22:54:52 25° SW 22:58:44 10° S visible
01 Sep 7.1 12:56:25 10° SW 13:01:04 88° SE 13:05:42 10° NE visible
01 Sep 9.9 14:41:08 10° WNW 14:43:41 14° NNW 14:46:15 10° N visible
01 Sep 9.7 21:43:20 12° SE 21:43:20 12° SE 21:43:40 10° SE visible
02 Sep 8.8 13:22:59 10° WSW 13:27:13 34° NW 13:31:26 10° NNE visible
